Regional Weather Roundup
Issued by NWS

Home | Current Version | Previous Version | Text Only | Print | Product List | Glossary On
Versions: 1 2 3 4 5 6 7 8 9 10 11 12 13 14 15 16 17 18 19 20 21 22 23 24 25 26 27 28 29 30 31 32 33 34 35 36 37 38 39 40 41 42 43 44 45 46 47 48 49 50
000
ASCA44 KEWX 032120
RWRMX

LATIN AMERICA AND CARIBBEAN REGIONAL WEATHER ROUNDUP
NATIONAL WEATHER SERVICE AUSTIN/SAN ANTONIO TX
400 PM CDT MON AUG 03 2015

NOTE: "FAIR" INDICATED FEW OR NO CLOUDS BELOW 12,000 FEET WITH NO
SIGNIFICANT WEATHER AND/OR OBSTRUCTIONS TO VISIBILITY.

BAJA CALIFORNIA

CITY           SKY/WX    TMP DP  RH WIND       PRES   REMARKS
LORETO         MOSUNNY   93  82  70 E9        29.79F HX 117
LA PAZ         PTSUNNY   90  73  58 N14       29.80  HX  98
MEXICALI       SUNNY    108  54  16 S8        29.73  HX 106
S.J. DEL CABO  PTSUNNY   90  72  55 E7        29.81S HX  96
TIJUANA        MOSUNNY   79  59  50 W18       29.92F

NORTHWESTERN MEXICO

CITY           SKY/WX    TMP DP  RH WIND       PRES   REMARKS
CULIACAN       PTSUNNY   93  79  62 W6        29.81  HX 110
DURANGO        PTSUNNY   82  48  30 NE10      30.15
GUAYMAS        MOSUNNY   99  73  44 SE7       29.77  HX 109
HERMOSILLO     PTSUNNY   99  68  36 SE8       29.86F HX 104
CD. JUAREZ     PTSUNNY   95  55  26 N5        29.98  HX  93
LOS MOCHIS     PTSUNNY   88  75  66 SE8       29.83F HX  97
OBREGON        PTSUNNY   88  72  58 S5        29.80  HX  94

NORTHEASTERN MEXICO

CITY           SKY/WX    TMP DP  RH WIND       PRES   REMARKS
CHIHUAHUA      MOSUNNY   90  55  31 N12       30.03
MATAMOROS      PTSUNNY   95  77  55 SE14      29.90  HX 109
MONCLOVA         N/A    N/A N/A N/A MISG        N/A
MONTERREY      PTSUNNY   95  59  30 E9        29.85F HX  94
NUEVO LAREDO   MOSUNNY  104  66  29 E7        29.83  HX 109
PIEDRAS NEGRAS MOSUNNY  100  75  44 SE9       29.87F HX 114
REYNOSA        MOSUNNY   99  57  25 S9G21     29.82  HX  97
SALTILLO       MOSUNNY   88  64  45 N17       30.08F
TORREON        PTSUNNY   93  55  27 E7        29.99F HX  91
CD. VICTORIA   SUNNY     95  61  31 SE14      29.85  HX  95

WESTERN MEXICO

CITY           SKY/WX    TMP DP  RH WIND       PRES   REMARKS
AGUASCALIENTES SUNNY     77  54  44 SW8       30.18
COLIMA         MOSUNNY   84  72  65 SW7       29.93F
DEL BAJIO      PTSUNNY   82  57  42 E2        30.21F
GUADALAJARA    MOSUNNY   81  54  39 S6        30.09
MANZANILLO       N/A    N/A N/A N/A MISG        N/A
MAZATLAN       MOSUNNY   86  75  70 SW12      29.79F HX  95
P. VALLARTA    MOSUNNY   88  77  70 SW9       29.80F HX 100
URUAPAN        PTSUNNY   72  68  88 SE9       30.13F THUNDER
ZACATECAS        N/A    N/A N/A N/A MISG        N/A

CENTRAL MEXICO

CITY           SKY/WX    TMP DP  RH WIND       PRES   REMARKS
CUERNAVACA     MOSUNNY   86  52  30 CALM      30.00F
MEXICO CITY    MOSUNNY   79  43  27 NE3       30.22F
MORELIA        MOSUNNY   82  55  39 S6        30.15
POZA RICA      MOSUNNY   99  75  47 E12       29.86F HX 111
PUEBLA         MOSUNNY   79  48  34 SE5       30.23F
QUERETARO      MOSUNNY   79  55  44 NW6       30.21F
S. LUIS POTOSI PTSUNNY   82  46  28 CALM      30.14F
TAMPICO        MOSUNNY   90  75  62 E12       29.86F HX 100
TOLUCA         MOSUNNY   73  46  38 CALM      30.31F

SOUTHERN MEXICO

CITY           SKY/WX    TMP DP  RH WIND       PRES   REMARKS
ACAPULCO       PTSUNNY   88  75  66 W9        29.77F HX  97
B. DE HUATULCO MOSUNNY   91  77  62 SW9       29.82  HX 105
OAXACA         CLOUDY    82  50  32 NW7       30.09F
P. ESCONDIDO   PTSUNNY   90  75  62 W12       29.87F HX 100
VERACRUZ       MOSUNNY   91  75  59 E13       29.84F HX 102
ZIHUATANEJO    MOSUNNY   93  77  59 SW9       29.79F HX 107

YUCATAN PENINSULA

CITY           SKY/WX    TMP DP  RH WIND       PRES   REMARKS
CAMPECHE       MOSUNNY   90  77  66 N12       29.81F HX 102
CANCUN         PTSUNNY   88  75  66 E12       29.95F HX  97
CHETUMAL       MOSUNNY   88  77  70 SE17      29.89  HX 100
CD. DEL CARMEN MOSUNNY   90  79  70 N14       29.81  HX 105
COZUMEL        PTSUNNY   88  73  62 SE6       29.94S HX  96
MERIDA         LGT RAIN  77  75  94 NE17G30   29.90R
MINATITLAN     MOSUNNY   86  68  54 N12       29.78F
TAPACHULA      PTSUNNY   90  79  70 SW7       29.77F HX 105
TUX. GUTIERREZ PTSUNNY   86  68  54 N7        29.82F
VILLAHERMOSA   MOSUNNY   97  72  44 NE14G28   29.82F HX 105

CENTRAL AMERICA

CITY           SKY/WX    TMP DP  RH WIND       PRES   REMARKS
BELIZE CITY    MOSUNNY   90  77  66 E12       29.87F HX 102
MANAGUA        PTCLDY    93  66  40 E23       29.71F HX  96

CARIBBEAN

CITY           SKY/WX    TMP DP  RH WIND       PRES   REMARKS
ARUBA          MOSUNNY   86  79  79 E23       29.80S HX  99
CURACAO        MOSUNNY   86  75  70 E16       29.83S HX  95
KINGSTON       MOSUNNY   88  75  66 SE24      29.86S HX  97
NASSAU         MOSUNNY   90  82  79 SE6       30.00F HX 111
SAN JUAN       MOSUNNY   88  77  70 E20       29.99S HX 100
SANTO DOMINGO  MOSUNNY   88  77  70 SE12      29.92F HX 100
ST. CROIX      SUNNY     88  73  62 E20G28    29.98F HX  96
ST. KITTS      MOSUNNY   86  73  66 NE22      29.97S HX  93
ST. MAARTEN    MOSUNNY   84  72  65 E16       30.00S
ST. THOMAS     PTSUNNY   90  73  58 E16G22    29.98  HX  98

$$




USA.gov is the U.S. government's official web portal to all federal, state and local government web resources and services.